STARLINK-1735, 46565

Orbit data source: Space-Track

STARLINK-1735, 46565 is a payload satellite owned by SpaceX/Seattle (US) in LEO that was launched on Tue, 06 Oct 2020 UTC via an FALCON 9 launch vehicle from the Air Force Eastern Test Range (AFETR). Payload-class satellites include a variety of spacecraft equipped with specific instruments for various scientific and technological missions. These include communications satellites like Starlink; space stations such as the ISS; scientific satellites like the Hubble; Earth observation satellites from companies like Planet Labs, Umbra, and HawkEye 360; GPS; miniature CubeSats for education and research; and military/defense satellites.

Loading next visibility...
Identifier
46565, 2020-070AK
Orbit
LEO
Last TLE update
12 hours ago
Origin
Manufacturer
SpaceX/Seattle
Mission
Operational Commercial Communications
Bus & Motor
STARLINK, Unknown motor
Mass
260 kg wet, ~248 kg dry
Launch date (UTC)
2020-10-06 (5 years ago)
Launch vehicle
FALCON 9
Launch site
Air Force Eastern Test Range (AFETR)
Object type
Payload
Rocket body
Debris
Shape & HBR
Box + 1 Pan, 8.86 m
Radar Cross Section
13.562 m², Large (>1 m²)

Expand to show TLE details & history

TLE from 12 hours ago
0 STARLINK-1735
1 46565U 20070AK  25109.53303306  .00004109  00000-0  29448-3 0  9999
2 46565  53.0526 171.8086 0001242  94.1911 265.9220 15.06410732250624
Epoch: 2025-04-19T12:47Z
Definitive object data (Epoch: 2025-04-19T12:47:34.056Z)
Latitude
-0.00001°
Longitude
132.04183°
Altitude
548.119 km
Speed
7.589 km/s
True Right ascension
11h 27m 14s
True Declination
0° 00' 00"
Sunlit
Object was in full shadow at TLE epoch
Visualization TLE readout
Latitude
-52.79119°
Longitude
29.85019°
Altitude
566.351 km
Speed
7.577 km/s
Apparent Right ascension
23h 42m 10s
Apparent Declination
-67° 45' 50"
Sunlit
Object is in daylight
Visualization observer readout
Local Sidereal Time
07:59:25
Azimuth
208.61° SW
Elevation
-49.249°
Doppler factor
1
Orbital elements
Apogee altitude
548.31 km
Perigee altitude
546.59 km
Semi-major axis
6,925.587 km
Eccentricity
0.0001242
Inclination
53.0526°
RAAN
171.8086°
Arg. of periapsis
94.1911°
True anomaly
265.9078°
Mean anomaly
265.922°
Eccentric anomaly
265.9149°
Mean motion
3.76581 °/min
BSTAR
0.00029448
Orbital period
95.6 mins
Loading maneuver chart data...
Loading SW <> Apogee altitude chart data...
Loading historical data...
Loading historical data...
Loading historical data...
Loading historical data...
Loading historical data...
Loading historical data...
Loading historical data...

STARLINK-1735 Visibility forecast

Observer location: undefined°, undefined°

Span
Click to sort rows by Start time (UTC) header in descending order
Start Az.
Max El. time (UTC)
Max El. Az.
Max El.
End time (UTC)
End Az.
7 mins2025-04-20 06:28:22.095Z211.785° SW2025-04-20 06:31:22.095Z159.135° S38.944°2025-04-20 06:35:22.095Z58.737° ENE
5 mins2025-04-20 08:09:22.095Z289.205° WNW2025-04-20 08:11:22.095Z331.279° NNW24.384°2025-04-20 08:14:22.095Z27.674° NE
4 mins2025-04-20 11:31:22.095Z348.46° N2025-04-20 11:33:22.095Z23.543° NE16.315°2025-04-20 11:35:22.095Z54.724° ENE
6 mins2025-04-20 13:10:22.095Z320.982° NNW2025-04-20 13:13:22.095Z47.044° ENE39.883°2025-04-20 13:16:22.095Z112.649° SE
4 mins2025-04-20 14:51:22.095Z252.717° W2025-04-20 14:52:22.095Z232.995° WSW18.747°2025-04-20 14:55:22.095Z185.13° SSW
|